Year,Month,Day,Hour,Minute,Value (Times are PST for temperature in C)
2017,09,04,00,00,18.30
2017,09,04,00,01,18.30
2017,09,04,00,02,18.30
2017,09,04,00,03,18.30
2017,09,04,00,04,18.30
2017,09,04,00,05,18.30
2017,09,04,00,06,18.30
2017,09,04,00,07,18.30
2017,09,04,00,08,18.30
2017,09,04,00,09,18.20
2017,09,04,00,10,18.20
2017,09,04,00,11,18.20
2017,09,04,00,12,18.20
2017,09,04,00,13,18.20
2017,09,04,00,14,18.20
2017,09,04,00,15,18.20
2017,09,04,00,16,18.20
2017,09,04,00,17,18.20
2017,09,04,00,18,18.20
2017,09,04,00,19,18.30
2017,09,04,00,20,18.30
2017,09,04,00,21,18.30
2017,09,04,00,22,18.30
2017,09,04,00,23,18.30
2017,09,04,00,24,18.30
2017,09,04,00,25,18.40
2017,09,04,00,26,18.40
2017,09,04,00,27,18.40
2017,09,04,00,28,18.50
2017,09,04,00,29,18.50
2017,09,04,00,30,18.60
2017,09,04,00,31,18.60
2017,09,04,00,32,18.60
2017,09,04,00,33,18.60
2017,09,04,00,34,18.60
2017,09,04,00,35,18.60
2017,09,04,00,36,18.60
2017,09,04,00,37,18.60
2017,09,04,00,38,18.60
2017,09,04,00,39,18.60
2017,09,04,00,40,18.60
2017,09,04,00,41,18.60
2017,09,04,00,42,18.60
2017,09,04,00,43,18.60
2017,09,04,00,44,18.60
2017,09,04,00,45,18.60
2017,09,04,00,46,18.60
2017,09,04,00,47,18.60
2017,09,04,00,48,18.50
2017,09,04,00,49,18.50
2017,09,04,00,50,18.50
2017,09,04,00,51,18.50
2017,09,04,00,52,18.60
2017,09,04,00,53,18.60
2017,09,04,00,54,18.60
2017,09,04,00,55,18.60
2017,09,04,00,56,18.60
2017,09,04,00,57,18.60
2017,09,04,00,58,18.60
2017,09,04,00,59,18.60
2017,09,04,01,00,18.70
2017,09,04,01,01,18.70
2017,09,04,01,02,18.70
2017,09,04,01,03,18.70
2017,09,04,01,04,18.70
2017,09,04,01,05,18.70
2017,09,04,01,06,18.70
2017,09,04,01,07,18.60
2017,09,04,01,08,18.60
2017,09,04,01,09,18.60
2017,09,04,01,10,18.60
2017,09,04,01,11,18.60
2017,09,04,01,12,18.60
2017,09,04,01,13,18.50
2017,09,04,01,14,18.50
2017,09,04,01,15,18.50
2017,09,04,01,16,18.50
2017,09,04,01,17,18.50
2017,09,04,01,18,18.50
2017,09,04,01,19,18.60
2017,09,04,01,20,18.60
2017,09,04,01,21,18.60
2017,09,04,01,22,18.70
2017,09,04,01,23,18.70
2017,09,04,01,24,18.70
2017,09,04,01,25,18.80
2017,09,04,01,26,18.80
2017,09,04,01,27,18.80
2017,09,04,01,28,18.80
2017,09,04,01,29,18.80
2017,09,04,01,30,18.80
2017,09,04,01,31,18.80
2017,09,04,01,32,18.80
2017,09,04,01,33,18.80
2017,09,04,01,34,18.70
2017,09,04,01,35,18.70
2017,09,04,01,36,18.70
2017,09,04,01,37,18.70
2017,09,04,01,38,18.70
2017,09,04,01,39,18.70
2017,09,04,01,40,18.70
2017,09,04,01,41,18.70
2017,09,04,01,42,18.70
2017,09,04,01,43,18.80
2017,09,04,01,44,18.80
2017,09,04,01,45,18.80
2017,09,04,01,46,18.90
2017,09,04,01,47,18.90
2017,09,04,01,48,18.90
2017,09,04,01,49,18.90
2017,09,04,01,50,18.90
2017,09,04,01,51,18.90
2017,09,04,01,52,18.90
2017,09,04,01,53,18.90
2017,09,04,01,54,18.90
2017,09,04,01,55,18.80
2017,09,04,01,56,18.80
2017,09,04,01,57,18.80
2017,09,04,01,58,18.80
2017,09,04,01,59,18.70
2017,09,04,02,00,18.70
2017,09,04,02,01,18.70
2017,09,04,02,02,18.60
2017,09,04,02,03,18.60
2017,09,04,02,04,18.60
2017,09,04,02,05,18.50
2017,09,04,02,06,18.50
2017,09,04,02,07,18.40
2017,09,04,02,08,18.40
2017,09,04,02,09,18.30
2017,09,04,02,10,18.30
2017,09,04,02,11,18.30
2017,09,04,02,12,18.20
2017,09,04,02,13,18.20
2017,09,04,02,14,18.20
2017,09,04,02,15,18.10
2017,09,04,02,16,18.10
2017,09,04,02,17,18.10
2017,09,04,02,18,18.00
2017,09,04,02,19,18.00
2017,09,04,02,20,18.00
2017,09,04,02,21,17.90
2017,09,04,02,22,17.90
2017,09,04,02,23,17.90
2017,09,04,02,24,17.90
2017,09,04,02,25,17.90
2017,09,04,02,26,17.90
2017,09,04,02,27,17.90
2017,09,04,02,28,17.90
2017,09,04,02,29,17.90
2017,09,04,02,30,17.90
2017,09,04,02,31,17.90
2017,09,04,02,32,17.90
2017,09,04,02,33,17.90
2017,09,04,02,34,17.90
2017,09,04,02,35,17.80
2017,09,04,02,36,17.80
2017,09,04,02,37,17.80
2017,09,04,02,38,17.80
2017,09,04,02,39,17.80
2017,09,04,02,40,17.80
2017,09,04,02,41,17.80
2017,09,04,02,42,17.80
2017,09,04,02,43,17.80
2017,09,04,02,44,17.80
2017,09,04,02,45,17.80
2017,09,04,02,46,17.80
2017,09,04,02,47,17.80
2017,09,04,02,48,17.80
2017,09,04,02,49,17.80
2017,09,04,02,50,17.80
2017,09,04,02,51,17.90
2017,09,04,02,52,17.90
2017,09,04,02,53,17.90
2017,09,04,02,54,17.90
2017,09,04,02,55,17.90
2017,09,04,02,56,17.90
2017,09,04,02,57,17.90
2017,09,04,02,58,17.90
2017,09,04,02,59,17.90
2017,09,04,03,00,17.90
2017,09,04,03,01,17.90
2017,09,04,03,02,17.90
2017,09,04,03,03,17.90
2017,09,04,03,04,17.90
2017,09,04,03,05,18.00
2017,09,04,03,06,18.00
2017,09,04,03,07,18.00
2017,09,04,03,08,18.10
2017,09,04,03,09,18.10
2017,09,04,03,10,18.10
2017,09,04,03,11,18.10
2017,09,04,03,12,18.10
2017,09,04,03,13,18.10
2017,09,04,03,14,18.20
2017,09,04,03,15,18.20
2017,09,04,03,16,18.20
2017,09,04,03,17,18.20
2017,09,04,03,18,18.20
2017,09,04,03,19,18.20
2017,09,04,03,20,18.20
2017,09,04,03,21,18.30
2017,09,04,03,22,18.30
2017,09,04,03,23,18.40
2017,09,04,03,24,18.60
2017,09,04,03,25,18.70
2017,09,04,03,26,18.80
2017,09,04,03,27,18.90
2017,09,04,03,28,19.10
2017,09,04,03,29,19.30
2017,09,04,03,30,19.60
2017,09,04,03,31,19.90
2017,09,04,03,32,20.20
2017,09,04,03,33,20.40
2017,09,04,03,34,20.60
2017,09,04,03,35,20.70
2017,09,04,03,36,20.80
2017,09,04,03,37,20.90
2017,09,04,03,38,21.10
2017,09,04,03,39,21.30
2017,09,04,03,40,21.40
2017,09,04,03,41,21.50
2017,09,04,03,42,21.60
2017,09,04,03,43,21.60
2017,09,04,03,44,21.80
2017,09,04,03,45,22.00
2017,09,04,03,46,22.10
2017,09,04,03,47,22.20
2017,09,04,03,48,22.40
2017,09,04,03,49,22.50
2017,09,04,03,50,22.60
2017,09,04,03,51,22.60
2017,09,04,03,52,22.60
2017,09,04,03,53,22.70
2017,09,04,03,54,22.70
2017,09,04,03,55,22.80
2017,09,04,03,56,22.80
2017,09,04,03,57,22.80
2017,09,04,03,58,22.70
2017,09,04,03,59,22.70
2017,09,04,04,00,22.70
2017,09,04,04,01,22.70
2017,09,04,04,02,22.70
2017,09,04,04,03,22.70
2017,09,04,04,04,22.70
2017,09,04,04,05,22.60
2017,09,04,04,06,22.60
2017,09,04,04,07,22.60
2017,09,04,04,08,22.60
2017,09,04,04,09,22.60
2017,09,04,04,10,22.60
2017,09,04,04,11,22.70
2017,09,04,04,12,22.70
2017,09,04,04,13,22.70
2017,09,04,04,14,22.80
2017,09,04,04,15,22.80
2017,09,04,04,16,23.00
2017,09,04,04,17,23.10
2017,09,04,04,18,23.20
2017,09,04,04,19,23.30
2017,09,04,04,20,23.40
2017,09,04,04,21,23.40
2017,09,04,04,22,23.40
2017,09,04,04,23,23.40
2017,09,04,04,24,23.50
2017,09,04,04,25,23.60
2017,09,04,04,26,23.60
2017,09,04,04,27,23.70
2017,09,04,04,28,23.80
2017,09,04,04,29,23.90
2017,09,04,04,30,23.90
2017,09,04,04,31,23.90
2017,09,04,04,32,23.90
2017,09,04,04,33,23.90
2017,09,04,04,34,23.90
2017,09,04,04,35,23.90
2017,09,04,04,36,23.90
2017,09,04,04,37,23.90
2017,09,04,04,38,23.80
2017,09,04,04,39,23.80
2017,09,04,04,40,23.80
2017,09,04,04,41,23.80
2017,09,04,04,42,23.90
2017,09,04,04,43,24.00
2017,09,04,04,44,24.00
2017,09,04,04,45,24.10
2017,09,04,04,46,24.10
2017,09,04,04,47,24.10
2017,09,04,04,48,24.20
2017,09,04,04,49,24.20
2017,09,04,04,50,24.30
2017,09,04,04,51,24.30
2017,09,04,04,52,24.40
2017,09,04,04,53,24.40
2017,09,04,04,54,24.40
2017,09,04,04,55,24.50
2017,09,04,04,56,24.50
2017,09,04,04,57,24.50
2017,09,04,04,58,24.60
2017,09,04,04,59,24.60
2017,09,04,05,00,24.60
2017,09,04,05,01,24.60
2017,09,04,05,02,24.60
2017,09,04,05,03,24.60
2017,09,04,05,04,24.50
2017,09,04,05,05,24.50
2017,09,04,05,06,24.40
2017,09,04,05,07,24.40
2017,09,04,05,08,24.40
2017,09,04,05,09,24.40
2017,09,04,05,10,24.40
2017,09,04,05,11,24.30
2017,09,04,05,12,24.30
2017,09,04,05,13,24.30
2017,09,04,05,14,24.30
2017,09,04,05,15,24.20
2017,09,04,05,16,24.20
2017,09,04,05,17,24.20
2017,09,04,05,18,24.20
2017,09,04,05,19,24.20
2017,09,04,05,20,24.20
2017,09,04,05,21,24.20
2017,09,04,05,22,24.20
2017,09,04,05,23,24.20
2017,09,04,05,24,24.20
2017,09,04,05,25,24.20
2017,09,04,05,26,24.20
2017,09,04,05,27,24.20
2017,09,04,05,28,24.20
2017,09,04,05,29,24.20
2017,09,04,05,30,24.20
2017,09,04,05,31,24.20
2017,09,04,05,32,24.20
2017,09,04,05,33,24.20
2017,09,04,05,34,24.10
2017,09,04,05,35,24.10
2017,09,04,05,36,24.10
2017,09,04,05,37,24.10
2017,09,04,05,38,24.00
2017,09,04,05,39,24.00
2017,09,04,05,40,23.90
2017,09,04,05,41,23.90
2017,09,04,05,42,23.90
2017,09,04,05,43,23.90
2017,09,04,05,44,23.90
2017,09,04,05,45,23.80
2017,09,04,05,46,23.80
2017,09,04,05,47,23.70
2017,09,04,05,48,23.60
2017,09,04,05,49,23.40
2017,09,04,05,50,23.40
2017,09,04,05,51,23.30
2017,09,04,05,52,23.20
2017,09,04,05,53,23.10
2017,09,04,05,54,23.00
2017,09,04,05,55,22.90
2017,09,04,05,56,22.80
2017,09,04,05,57,22.70
2017,09,04,05,58,22.70
2017,09,04,05,59,22.60
2017,09,04,06,00,22.50
2017,09,04,06,01,22.40
2017,09,04,06,02,22.30
2017,09,04,06,03,22.20
2017,09,04,06,04,22.10
2017,09,04,06,05,22.00
2017,09,04,06,06,22.00
2017,09,04,06,07,21.90
2017,09,04,06,08,21.90
2017,09,04,06,09,21.90
2017,09,04,06,10,21.90
2017,09,04,06,11,21.80
2017,09,04,06,12,21.80
2017,09,04,06,13,21.80
2017,09,04,06,14,21.80
2017,09,04,06,15,21.70
2017,09,04,06,16,21.70
2017,09,04,06,17,21.70
2017,09,04,06,18,21.60
2017,09,04,06,19,21.60
2017,09,04,06,20,21.50
2017,09,04,06,21,21.50
2017,09,04,06,22,21.40
2017,09,04,06,23,21.40
2017,09,04,06,24,21.40
2017,09,04,06,25,21.30
2017,09,04,06,26,21.30
2017,09,04,06,27,21.30
2017,09,04,06,28,21.20
2017,09,04,06,29,21.20
2017,09,04,06,30,21.20
2017,09,04,06,31,21.10
2017,09,04,06,32,21.10
2017,09,04,06,33,21.20
2017,09,04,06,34,21.20
2017,09,04,06,35,21.30
2017,09,04,06,36,21.40
2017,09,04,06,37,21.50
2017,09,04,06,38,21.50
2017,09,04,06,39,21.50
2017,09,04,06,40,21.50
2017,09,04,06,41,21.50
2017,09,04,06,42,21.40
2017,09,04,06,43,21.40
2017,09,04,06,44,21.30
2017,09,04,06,45,21.30
2017,09,04,06,46,21.30
2017,09,04,06,47,21.20
2017,09,04,06,48,21.10
2017,09,04,06,49,21.10
2017,09,04,06,50,21.10
2017,09,04,06,51,21.10
2017,09,04,06,52,21.00
2017,09,04,06,53,21.00
2017,09,04,06,54,21.00
2017,09,04,06,55,20.90
2017,09,04,06,56,20.90
2017,09,04,06,57,20.90
2017,09,04,06,58,20.90
2017,09,04,06,59,20.90
2017,09,04,07,00,20.90
2017,09,04,07,01,20.90
2017,09,04,07,02,20.90
2017,09,04,07,03,20.90
2017,09,04,07,04,20.90
2017,09,04,07,05,20.90
2017,09,04,07,06,20.90
2017,09,04,07,07,20.90
2017,09,04,07,08,20.90
2017,09,04,07,09,20.90
2017,09,04,07,10,20.90
2017,09,04,07,11,20.80
2017,09,04,07,12,20.80
2017,09,04,07,13,20.80
2017,09,04,07,14,20.80
2017,09,04,07,15,20.70
2017,09,04,07,16,20.70
2017,09,04,07,17,20.60
2017,09,04,07,18,20.60
2017,09,04,07,19,20.60
2017,09,04,07,20,20.50
2017,09,04,07,21,20.50
2017,09,04,07,22,20.40
2017,09,04,07,23,20.40
2017,09,04,07,24,20.40
2017,09,04,07,25,20.40
2017,09,04,07,26,20.50
2017,09,04,07,27,20.50
2017,09,04,07,28,20.50
2017,09,04,07,29,20.60
2017,09,04,07,30,20.60
2017,09,04,07,31,20.70
2017,09,04,07,32,20.70
2017,09,04,07,33,20.80
2017,09,04,07,34,20.80
2017,09,04,07,35,20.80
2017,09,04,07,36,20.80
2017,09,04,07,37,20.80
2017,09,04,07,38,20.80
2017,09,04,07,39,20.80
2017,09,04,07,40,20.90
2017,09,04,07,41,20.90
2017,09,04,07,42,20.90
2017,09,04,07,43,20.90
2017,09,04,07,44,21.00
2017,09,04,07,45,21.10
2017,09,04,07,46,21.10
2017,09,04,07,47,21.20
2017,09,04,07,48,21.30
2017,09,04,07,49,21.30
2017,09,04,07,50,21.40
2017,09,04,07,51,21.50
2017,09,04,07,52,21.50
2017,09,04,07,53,21.60
2017,09,04,07,54,21.70
2017,09,04,07,55,21.80
2017,09,04,07,56,21.80
2017,09,04,07,57,21.90
2017,09,04,07,58,22.00
2017,09,04,07,59,22.10
2017,09,04,08,00,22.20
2017,09,04,08,01,22.20
2017,09,04,08,02,22.30
2017,09,04,08,03,22.50
2017,09,04,08,04,22.50
2017,09,04,08,05,22.60
2017,09,04,08,06,22.60
2017,09,04,08,07,22.70
2017,09,04,08,08,22.80
2017,09,04,08,09,22.90
2017,09,04,08,10,23.00
2017,09,04,08,11,23.10
2017,09,04,08,12,23.20
2017,09,04,08,13,23.30
2017,09,04,08,14,23.40
2017,09,04,08,15,23.50
2017,09,04,08,16,23.50
2017,09,04,08,17,23.60
2017,09,04,08,18,23.70
2017,09,04,08,19,23.70
2017,09,04,08,20,23.80
2017,09,04,08,21,23.80
2017,09,04,08,22,23.80
2017,09,04,08,23,23.90
2017,09,04,08,24,23.90
2017,09,04,08,25,23.90
2017,09,04,08,26,24.00
2017,09,04,08,27,24.00
2017,09,04,08,28,24.10
2017,09,04,08,29,24.10
2017,09,04,08,30,24.10
2017,09,04,08,31,24.20
2017,09,04,08,32,24.40
2017,09,04,08,33,24.50
2017,09,04,08,34,24.60
2017,09,04,08,35,24.70
2017,09,04,08,36,24.80
2017,09,04,08,37,24.90
2017,09,04,08,38,25.00
2017,09,04,08,39,25.10
2017,09,04,08,40,25.10
2017,09,04,08,41,25.20
2017,09,04,08,42,25.30
2017,09,04,08,43,25.30
2017,09,04,08,44,25.40
2017,09,04,08,45,25.40
2017,09,04,08,46,25.50
2017,09,04,08,47,25.50
2017,09,04,08,48,25.60
2017,09,04,08,49,25.60
2017,09,04,08,50,25.60
2017,09,04,08,51,25.60
2017,09,04,08,52,25.70
2017,09,04,08,53,25.80
2017,09,04,08,54,25.90
2017,09,04,08,55,25.90
2017,09,04,08,56,25.90
2017,09,04,08,57,26.00
2017,09,04,08,58,26.10
2017,09,04,08,59,26.10
2017,09,04,09,00,26.20
2017,09,04,09,01,26.20
2017,09,04,09,02,26.30
2017,09,04,09,03,26.30
2017,09,04,09,04,26.30
2017,09,04,09,05,26.30
2017,09,04,09,06,26.30
2017,09,04,09,07,26.30
2017,09,04,09,08,26.40
2017,09,04,09,09,26.40
2017,09,04,09,10,26.50
2017,09,04,09,11,26.50
2017,09,04,09,12,26.60
2017,09,04,09,13,26.70
2017,09,04,09,14,26.70
2017,09,04,09,15,26.80
2017,09,04,09,16,26.80
2017,09,04,09,17,26.90
2017,09,04,09,18,27.00
2017,09,04,09,19,27.00
2017,09,04,09,20,27.10
2017,09,04,09,21,27.10
2017,09,04,09,22,27.30
2017,09,04,09,23,27.30
2017,09,04,09,24,27.30
2017,09,04,09,25,27.40
2017,09,04,09,26,27.50
2017,09,04,09,27,27.60
2017,09,04,09,28,27.70
2017,09,04,09,29,27.90
2017,09,04,09,30,28.00
2017,09,04,09,31,28.00
2017,09,04,09,32,28.00
2017,09,04,09,33,28.10
2017,09,04,09,34,28.10
2017,09,04,09,35,28.10
2017,09,04,09,36,28.20
2017,09,04,09,37,28.20
2017,09,04,09,38,28.30
2017,09,04,09,39,28.30
2017,09,04,09,40,28.30
2017,09,04,09,41,28.30
2017,09,04,09,42,28.30
2017,09,04,09,43,28.40
2017,09,04,09,44,28.40
2017,09,04,09,45,28.40
2017,09,04,09,46,28.40
2017,09,04,09,47,28.40
2017,09,04,09,48,28.40
2017,09,04,09,49,28.40
2017,09,04,09,50,28.40
2017,09,04,09,51,28.50
2017,09,04,09,52,28.50
2017,09,04,09,53,28.60
2017,09,04,09,54,28.70
2017,09,04,09,55,28.70
2017,09,04,09,56,28.70
2017,09,04,09,57,28.70
2017,09,04,09,58,28.60
2017,09,04,09,59,28.50
2017,09,04,10,00,28.50
2017,09,04,10,01,28.40
2017,09,04,10,02,28.30
2017,09,04,10,03,28.30
2017,09,04,10,04,28.30
2017,09,04,10,05,28.40
2017,09,04,10,06,28.40
2017,09,04,10,07,28.40
2017,09,04,10,08,28.40
2017,09,04,10,09,28.40
2017,09,04,10,10,28.30
2017,09,04,10,11,28.30
2017,09,04,10,12,28.30
2017,09,04,10,13,28.30
2017,09,04,10,14,28.30
2017,09,04,10,15,28.30
2017,09,04,10,16,28.40
2017,09,04,10,17,28.40
2017,09,04,10,18,28.50
2017,09,04,10,19,28.50
2017,09,04,10,20,28.50
2017,09,04,10,21,28.60
2017,09,04,10,22,28.60
2017,09,04,10,23,28.70
2017,09,04,10,24,28.70
2017,09,04,10,25,28.70
2017,09,04,10,26,28.70
2017,09,04,10,27,28.70
2017,09,04,10,28,28.60
2017,09,04,10,29,28.50
2017,09,04,10,30,28.40
2017,09,04,10,31,28.40
2017,09,04,10,32,28.40
2017,09,04,10,33,28.40
2017,09,04,10,34,28.30
2017,09,04,10,35,28.30
2017,09,04,10,36,28.30
2017,09,04,10,37,28.40
2017,09,04,10,38,28.40
2017,09,04,10,39,28.40
2017,09,04,10,40,28.50
2017,09,04,10,41,28.50
2017,09,04,10,42,28.60
2017,09,04,10,43,28.70
2017,09,04,10,44,28.70
2017,09,04,10,45,28.70
2017,09,04,10,46,28.80
2017,09,04,10,47,28.80
2017,09,04,10,48,28.90
2017,09,04,10,49,28.90
2017,09,04,10,50,28.80
2017,09,04,10,51,28.80
2017,09,04,10,52,28.80
2017,09,04,10,53,28.70
2017,09,04,10,54,28.70
2017,09,04,10,55,28.70
2017,09,04,10,56,28.70
2017,09,04,10,57,28.70
2017,09,04,10,58,28.70
2017,09,04,10,59,28.70
2017,09,04,11,00,28.80
2017,09,04,11,01,28.90
2017,09,04,11,02,28.90
2017,09,04,11,03,28.90
2017,09,04,11,04,29.00
2017,09,04,11,05,29.10
2017,09,04,11,06,29.20
2017,09,04,11,07,29.20
2017,09,04,11,08,29.30
2017,09,04,11,09,29.40
2017,09,04,11,10,29.50
2017,09,04,11,11,29.50
2017,09,04,11,12,29.60
2017,09,04,11,13,29.60
2017,09,04,11,14,29.60
2017,09,04,11,15,29.60
2017,09,04,11,16,29.60
2017,09,04,11,17,29.70
2017,09,04,11,18,29.70
2017,09,04,11,19,29.70
2017,09,04,11,20,29.70
2017,09,04,11,21,29.70
2017,09,04,11,22,29.80
2017,09,04,11,23,29.80
2017,09,04,11,24,29.80
2017,09,04,11,25,29.80
2017,09,04,11,26,29.90
2017,09,04,11,27,29.90
2017,09,04,11,28,30.00
2017,09,04,11,29,30.00
2017,09,04,11,30,30.10
2017,09,04,11,31,30.10
2017,09,04,11,32,30.20
2017,09,04,11,33,30.20
2017,09,04,11,34,30.20
2017,09,04,11,35,30.20
2017,09,04,11,36,30.30
2017,09,04,11,37,30.30
2017,09,04,11,38,30.30
2017,09,04,11,39,30.40
2017,09,04,11,40,30.40
2017,09,04,11,41,30.50
2017,09,04,11,42,30.50
2017,09,04,11,43,30.50
2017,09,04,11,44,30.30
2017,09,04,11,45,30.20
2017,09,04,11,46,30.10
2017,09,04,11,47,30.10
2017,09,04,11,48,30.10
2017,09,04,11,49,30.00
2017,09,04,11,50,30.10
2017,09,04,11,51,30.10
2017,09,04,11,52,30.20
2017,09,04,11,53,30.20
2017,09,04,11,54,30.30
2017,09,04,11,55,30.30
2017,09,04,11,56,30.40
2017,09,04,11,57,30.40
2017,09,04,11,58,30.40
2017,09,04,11,59,30.30
2017,09,04,12,00,30.40
2017,09,04,12,01,30.40
2017,09,04,12,02,30.40
2017,09,04,12,03,30.40
2017,09,04,12,04,30.50
2017,09,04,12,05,30.60
2017,09,04,12,06,30.70
2017,09,04,12,07,30.70
2017,09,04,12,08,30.60
2017,09,04,12,09,30.60
2017,09,04,12,10,30.60
2017,09,04,12,11,30.60
2017,09,04,12,12,30.60
2017,09,04,12,13,30.60
2017,09,04,12,14,30.50
2017,09,04,12,15,30.40
2017,09,04,12,16,30.40
2017,09,04,12,17,30.40
2017,09,04,12,18,30.50
2017,09,04,12,19,30.60
2017,09,04,12,20,30.60
2017,09,04,12,21,30.60
2017,09,04,12,22,30.70
2017,09,04,12,23,30.70
2017,09,04,12,24,30.70
2017,09,04,12,25,30.80
2017,09,04,12,26,30.80
2017,09,04,12,27,30.90
2017,09,04,12,28,30.90
2017,09,04,12,29,31.00
2017,09,04,12,30,31.10
2017,09,04,12,31,31.10
2017,09,04,12,32,31.10
2017,09,04,12,33,31.10
2017,09,04,12,34,31.20
2017,09,04,12,35,31.20
2017,09,04,12,36,31.20
2017,09,04,12,37,31.30
2017,09,04,12,38,31.30
2017,09,04,12,39,31.30
2017,09,04,12,40,31.30
2017,09,04,12,41,31.40
2017,09,04,12,42,31.40
2017,09,04,12,43,31.40
2017,09,04,12,44,31.40
2017,09,04,12,45,31.30
2017,09,04,12,46,31.40
2017,09,04,12,47,31.50
2017,09,04,12,48,31.50
2017,09,04,12,49,31.50
2017,09,04,12,50,31.40
2017,09,04,12,51,31.40
2017,09,04,12,52,31.40
2017,09,04,12,53,31.40
2017,09,04,12,54,31.50
2017,09,04,12,55,31.60
2017,09,04,12,56,31.60
2017,09,04,12,57,31.70
2017,09,04,12,58,31.70
2017,09,04,12,59,31.80
2017,09,04,13,00,31.80
2017,09,04,13,01,31.80
2017,09,04,13,02,31.80
2017,09,04,13,03,31.80
2017,09,04,13,04,31.90
2017,09,04,13,05,31.90
2017,09,04,13,06,32.00
2017,09,04,13,07,32.00
2017,09,04,13,08,32.10
2017,09,04,13,09,32.10
2017,09,04,13,10,32.10
2017,09,04,13,11,32.10
2017,09,04,13,12,32.10
2017,09,04,13,13,32.00
2017,09,04,13,14,32.00
2017,09,04,13,15,32.00
2017,09,04,13,16,31.90
2017,09,04,13,17,31.90
2017,09,04,13,18,32.00
2017,09,04,13,19,32.00
2017,09,04,13,20,32.10
2017,09,04,13,21,32.10
2017,09,04,13,22,32.10
2017,09,04,13,23,32.10
2017,09,04,13,24,32.20
2017,09,04,13,25,32.20
2017,09,04,13,26,32.10
2017,09,04,13,27,32.10
2017,09,04,13,28,32.10
2017,09,04,13,29,32.10
2017,09,04,13,30,32.10
2017,09,04,13,31,32.10
2017,09,04,13,32,32.20
2017,09,04,13,33,32.30
2017,09,04,13,34,32.30
2017,09,04,13,35,32.30
2017,09,04,13,36,32.30
2017,09,04,13,37,32.30
2017,09,04,13,38,32.30
2017,09,04,13,39,32.30
2017,09,04,13,40,32.40
2017,09,04,13,41,32.40
2017,09,04,13,42,32.50
2017,09,04,13,43,32.50
2017,09,04,13,44,32.50
2017,09,04,13,45,32.50
2017,09,04,13,46,32.40
2017,09,04,13,47,32.40
2017,09,04,13,48,32.30
2017,09,04,13,49,32.30
2017,09,04,13,50,32.30
2017,09,04,13,51,32.30
2017,09,04,13,52,32.30
2017,09,04,13,53,32.30
2017,09,04,13,54,32.30
2017,09,04,13,55,32.30
2017,09,04,13,56,32.30
2017,09,04,13,57,32.40
2017,09,04,13,58,32.40
2017,09,04,13,59,32.40
2017,09,04,14,00,32.40
2017,09,04,14,01,32.40
2017,09,04,14,02,32.40
2017,09,04,14,03,32.30
2017,09,04,14,04,32.30
2017,09,04,14,05,32.30
2017,09,04,14,06,32.30
2017,09,04,14,07,32.30
2017,09,04,14,08,32.40
2017,09,04,14,09,32.40
2017,09,04,14,10,32.40
2017,09,04,14,11,32.40
2017,09,04,14,12,32.40
2017,09,04,14,13,32.50
2017,09,04,14,14,32.50
2017,09,04,14,15,32.60
2017,09,04,14,16,32.60
2017,09,04,14,17,32.60
2017,09,04,14,18,32.60
2017,09,04,14,19,32.60
2017,09,04,14,20,32.70
2017,09,04,14,21,32.70
2017,09,04,14,22,32.80
2017,09,04,14,23,32.80
2017,09,04,14,24,32.90
2017,09,04,14,25,32.90
2017,09,04,14,26,33.00
2017,09,04,14,27,33.10
2017,09,04,14,28,33.20
2017,09,04,14,29,33.30
2017,09,04,14,30,33.40
2017,09,04,14,31,33.40
2017,09,04,14,32,33.50
2017,09,04,14,33,33.60
2017,09,04,14,34,33.70
2017,09,04,14,35,33.70
2017,09,04,14,36,33.70
2017,09,04,14,37,33.60
2017,09,04,14,38,33.60
2017,09,04,14,39,33.60
2017,09,04,14,40,33.60
2017,09,04,14,41,33.60
2017,09,04,14,42,33.60
2017,09,04,14,43,33.60
2017,09,04,14,44,33.60
2017,09,04,14,45,33.60
2017,09,04,14,46,33.60
2017,09,04,14,47,33.60
2017,09,04,14,48,33.60
2017,09,04,14,49,33.60
2017,09,04,14,50,33.70
2017,09,04,14,51,33.70
2017,09,04,14,52,33.80
2017,09,04,14,53,33.80
2017,09,04,14,54,33.90
2017,09,04,14,55,33.90
2017,09,04,14,56,33.90
2017,09,04,14,57,33.90
2017,09,04,14,58,33.90
2017,09,04,14,59,33.90
2017,09,04,15,00,33.80
2017,09,04,15,01,33.80
2017,09,04,15,02,33.90
2017,09,04,15,03,33.80
2017,09,04,15,04,33.80
2017,09,04,15,05,33.80
2017,09,04,15,06,33.70
2017,09,04,15,07,33.60
2017,09,04,15,08,33.60
2017,09,04,15,09,33.70
2017,09,04,15,10,33.70
2017,09,04,15,11,33.70
2017,09,04,15,12,33.70
2017,09,04,15,13,33.70
2017,09,04,15,14,33.80
2017,09,04,15,15,33.80
2017,09,04,15,16,33.90
2017,09,04,15,17,33.90
2017,09,04,15,18,33.90
2017,09,04,15,19,34.00
2017,09,04,15,20,34.00
2017,09,04,15,21,34.00
2017,09,04,15,22,34.10
2017,09,04,15,23,34.10
2017,09,04,15,24,34.10
2017,09,04,15,25,34.20
2017,09,04,15,26,34.20
2017,09,04,15,27,34.20
2017,09,04,15,28,34.10
2017,09,04,15,29,34.10
2017,09,04,15,30,34.00
2017,09,04,15,31,34.00
2017,09,04,15,32,34.10
2017,09,04,15,33,34.10
2017,09,04,15,34,34.20
2017,09,04,15,35,34.20
2017,09,04,15,36,34.20
2017,09,04,15,37,34.20
2017,09,04,15,38,34.10
2017,09,04,15,39,34.10
2017,09,04,15,40,33.90
2017,09,04,15,41,33.80
2017,09,04,15,42,33.80
2017,09,04,15,43,33.70
2017,09,04,15,44,33.50
2017,09,04,15,45,33.40
2017,09,04,15,46,33.20
2017,09,04,15,47,33.20
2017,09,04,15,48,33.10
2017,09,04,15,49,32.90
2017,09,04,15,50,32.70
2017,09,04,15,51,32.50
2017,09,04,15,52,32.30
2017,09,04,15,53,32.10
2017,09,04,15,54,31.90
2017,09,04,15,55,31.80
2017,09,04,15,56,31.70
2017,09,04,15,57,31.60
2017,09,04,15,58,31.60
2017,09,04,15,59,31.60
2017,09,04,16,00,31.60
2017,09,04,16,01,31.60
2017,09,04,16,02,31.60
2017,09,04,16,03,31.70
2017,09,04,16,04,31.70
2017,09,04,16,05,31.70
2017,09,04,16,06,31.80
2017,09,04,16,07,31.80
2017,09,04,16,08,31.80
2017,09,04,16,09,31.90
2017,09,04,16,10,32.00
2017,09,04,16,11,32.00
2017,09,04,16,12,32.10
2017,09,04,16,13,32.10
2017,09,04,16,14,32.10
2017,09,04,16,15,32.20
2017,09,04,16,16,32.30
2017,09,04,16,17,32.40
2017,09,04,16,18,32.50
2017,09,04,16,19,32.60
2017,09,04,16,20,32.70
2017,09,04,16,21,32.80
2017,09,04,16,22,32.90
2017,09,04,16,23,33.00
2017,09,04,16,24,33.00
2017,09,04,16,25,33.00
2017,09,04,16,26,32.90
2017,09,04,16,27,33.00
2017,09,04,16,28,33.10
2017,09,04,16,29,33.10
2017,09,04,16,30,33.10
2017,09,04,16,31,33.20
2017,09,04,16,32,33.20
2017,09,04,16,33,33.20
2017,09,04,16,34,33.30
2017,09,04,16,35,33.20
2017,09,04,16,36,33.30
2017,09,04,16,37,33.30
2017,09,04,16,38,33.30
2017,09,04,16,39,33.30
2017,09,04,16,40,33.30
2017,09,04,16,41,33.30
2017,09,04,16,42,33.30
2017,09,04,16,43,33.30
2017,09,04,16,44,33.30
2017,09,04,16,45,33.40
2017,09,04,16,46,33.40
2017,09,04,16,47,33.50
2017,09,04,16,48,33.60
2017,09,04,16,49,33.60
2017,09,04,16,50,33.60
2017,09,04,16,51,33.70
2017,09,04,16,52,33.70
2017,09,04,16,53,33.70
2017,09,04,16,54,33.70
2017,09,04,16,55,33.50
2017,09,04,16,56,33.20
2017,09,04,16,57,33.10
2017,09,04,16,58,33.00
2017,09,04,16,59,32.80
2017,09,04,17,00,32.60
2017,09,04,17,01,32.40
2017,09,04,17,02,32.30
2017,09,04,17,03,32.10
2017,09,04,17,04,32.00
2017,09,04,17,05,31.90
2017,09,04,17,06,31.90
2017,09,04,17,07,31.80
2017,09,04,17,08,31.80
2017,09,04,17,09,31.80
2017,09,04,17,10,31.80
2017,09,04,17,11,31.70
2017,09,04,17,12,31.50
2017,09,04,17,13,31.20
2017,09,04,17,14,30.90
2017,09,04,17,15,30.60
2017,09,04,17,16,30.30
2017,09,04,17,17,30.00
2017,09,04,17,18,29.90
2017,09,04,17,19,29.70